Location: Unspecified
(43.4354°N, 0.0000°E)
Time: 10:25:38
(UTC+00:00)

Tiros 1 despin weight - Pass Details

Date: 03 July 2019
Orbit: 594 x 642 km, 48.2° (Epoch: 18 July)

Event Time Altitude Azimuth Distance (km) Brightness Sun altitude
Rises 21:58:06 0° 285° (WNW) 2,876 ? -17.6°
Reaches altitude 10° 22:00:30 10° 292° (WNW) 1,963 ? -17.8°
Maximum altitude 22:04:51 46° 6° (N) 809 ? -18.2°
Drops below altitude 10° 22:09:08 10° 81° (E) 1,937 ? -18.6°
Enters shadow 22:09:33 - 82° (E) 2,090 ? -18.6°
